CLASSIFICA

WINTER TRAIL DEI MONTI SIMBRUINI 2019

DIVISIONI:
COMPETITIVA     CLASSIFICA:   ASSOLUTA    M     F    
CATEGORIE:   TUTTE    |   OVER 45 F   |   OVER 45 M   |   UNDER 45 F   |   UNDER 45 M  
FILTRO:
  Atleta      Team        Pulisci       Atleti classificati COMPETITIVA: 226  

Cliccare sulle colonne per cambiare ordinamento
Azioni - Pos. M/F Cat. P.Cat. Pett Naz Atleta Squadra Tempo Distacco Distacco in metri
1 22OVER 45 M0379D'EMIDIO MASSIMOSABINA MARATHON CLUB01:05:16+00:33 101
2 1111OVER 45 M1320PROFICO ROSARIOLADISPOLI PROFESSIONE CICLISMO01:12:57+08:14 1.354
3 1616OVER 45 M2279TROMBETTA ROBERTOASD TRAIL DEI MONTI SIMBRUINI01:15:09+10:26 1.666
4 2222OVER 45 M3418GENTILINI VLADIMIROATL. ROCCA PRIORA01:16:19+11:36 1.823
5 2323OVER 45 M4428URBANI MARCOATL. ROCCA PRIORA01:16:38+11:55 1.866
6 2626OVER 45 M5399CAPOTORTI GUIDOTRAIL DEI DUE LAGHI01:17:01+12:18 1.916
7 3434OVER 45 M6425ARELLANO BARCO CARLOS IVANCAT SPORT ROMA01:17:59+13:16 2.041
8 3535OVER 45 M7294ABBRUGIATI SERGIOFILIPPIDE RUNNERS TEAM ASD01:18:31+13:48 2.109
9 4140OVER 45 M8380TRIPICIANO DARIOSABINA MARATHON CLUB01:19:52+15:09 2.276
10 4443OVER 45 M9201DE STEFANIS ALESSANDRORUNNERS SAN GEMINI01:20:02+15:19 2.296
11 4544OVER 45 M10287CESTRA PATRIZIOERNICA RUNNING A.S.D.01:20:13+15:30 2.318
12 5047OVER 45 M11256ZUCCARINO ENRICOASD ROMA ECOMARATONA01:21:10+16:27 2.432
13 5350OVER 45 M12243COLETTA MARIANOASD KALI KALASAG E SPORT ESTREMI01:21:40+16:57 2.490
14 5451OVER 45 M13405CHECCHI GIULIOTRAIL SANTA CHELIDONIA ASD01:21:45+17:02 2.500
15 5552OVER 45 M14223ONELLI AUGUSTOA.S.D. USA RUNNERS AVEZZANO01:21:50+17:07 2.509
16 5653OVER 45 M15310BOCCIA CRISTIANOIL CORRIDORE RUNNING CLUB ASD01:23:04+18:21 2.650
17 5754OVER 45 M16453BRIGHETTI LUCATRAIL SANTA CHELIDONIA ASD01:23:09+18:26 2.660
18 5956OVER 45 M17211PETRUCCI ANTONIOA.S.D. ATLETICA SABAUDIA01:23:31+18:48 2.701
19 6057OVER 45 M18328CACCIATORE LORISLIBERO01:24:02+19:19 2.758
20 6259OVER 45 M19305MICOZZI ALESSANDROGRUPPO MARCIATORI SIMBRUINI01:24:40+19:57 2.827
21 6461OVER 45 M20318FRANCAVILLA SERGIOLADISPOLI PROFESSIONE CICLISMO01:24:59+20:16 2.861
22 6663OVER 45 M21406CIUCCI ANGELOTRAIL SANTA CHELIDONIA ASD01:25:19+20:36 2.897
23 7167OVER 45 M22227SANTILLI ALDOACSI CAMPIDOGLIO PALATINO01:26:05+21:22 2.978
24 7571OVER 45 M23255SORGENTE SILVANOASD ROMA ECOMARATONA01:26:33+21:50 3.027
25 8073OVER 45 M24444FORTUNATO GIULIOASD ERNICA RUNNING01:27:13+22:30 3.095
26 8376OVER 45 M25296RODRIGUEZ VAZQUEZ JOSE ANTONIOFILIPPIDE RUNNERS TEAM ASD01:27:45+23:02 3.149
27 8477OVER 45 M26245PAPA MASSIMILIANOASD KALI KALASAG E SPORT ESTREMI01:27:46+23:03 3.151
28 8981OVER 45 M27394GIULIANI ALESSANDROTANA DEI LUPI01:28:49+24:06 3.256
29 9385OVER 45 M28299CASTELLANA LEONEG.S. BANCARI ROMANI01:29:33+24:50 3.327
30 9788OVER 45 M29213SCARDELLATO GIANLUCAA.S.D. ATLETICA SABAUDIA01:30:06+25:23 3.380
31 9889OVER 45 M30396POMPEI MARCOTEAM CAMELOT A.S.D.01:30:07+25:24 3.382
32 9990OVER 45 M31392SELIS GIOVANNIINDIVIDUALE01:30:08+25:25 3.383
33 10192OVER 45 M32416ALIMONTI PAOLORUNCARD01:30:22+25:39 3.406
34 10293OVER 45 M33422MAIOLI MAURIZIORUNCARD01:30:22+25:39 3.406
35 10796OVER 45 M34204MARCHEWA JERZY BOGDANA.S. ATL. ROCCA DI PAPA01:31:13+26:30 3.486
36 10897OVER 45 M35250BELLUCCI STEFANOASD ROMA ECOMARATONA01:31:36+26:53 3.521
37 111100OVER 45 M36222OTGIANU GESUINOA.S.D. TRAIL DEI DUE LAGHI01:31:57+27:14 3.554
38 112101OVER 45 M37358SPATOLA MARINO PAOLORIEQUILIBRIO01:32:04+27:21 3.564
39 115102OVER 45 M38404BRIGHETTI PIETROTRAIL SANTA CHELIDONIA ASD01:32:23+27:40 3.593
40 116103OVER 45 M39450BELTRAMINI FELICEA.S.D. ATLETICA SABAUDIA01:32:47+28:04 3.629
41 117104OVER 45 M40449CESTRA MARCOASD ERNICA RUNNING01:33:01+28:18 3.650
42 119105OVER 45 M41254GUIDOBALDI MASSIMOASD ROMA ECOMARATONA01:33:33+28:50 3.698
43 123107OVER 45 M42253DEL CIELLO LUCIANOASD ROMA ECOMARATONA01:34:26+29:43 3.776
44 124108OVER 45 M43267ROMITI MASSIMOASD RUNNER TRAINER01:34:28+29:45 3.779
45 126109OVER 45 M44302AVANCINI GIANMATTEOG.S. CAT SPORT ROMA01:34:34+29:51 3.787
46 129112OVER 45 M45234FABIANI FRANCESCOASD ATLETICA PALOMBARA01:34:44+30:01 3.802
47 130113OVER 45 M46300IANNICELLI EMILIANOG.S. BANCARI ROMANI01:34:45+30:02 3.803
48 131114OVER 45 M47353ELSANINO GIANLUCARIEQUILIBRIO01:35:07+30:24 3.835
49 133116OVER 45 M48370TIMPERI ENZORUNCARD01:35:26+30:43 3.862
50 134117OVER 45 M49288DURANTE FABRIZIOERNICA RUNNING A.S.D.01:35:58+31:15 3.907
51 139120OVER 45 M50212PETRUCCI FELICEA.S.D. ATLETICA SABAUDIA01:37:00+32:17 3.993
52 144123OVER 45 M51292ZEPPIERI PIETROERNICA RUNNING A.S.D.01:38:30+33:47 4.115
53 145124OVER 45 M52357MANCINI GIANLUIGIRIEQUILIBRIO01:38:30+33:47 4.115
54 146125OVER 45 M53241MICALONI GILBERTOASD ITALIA SPORT RUNNING01:38:34+33:51 4.121
55 148126OVER 45 M54460MASTROGIACOMO AUGUSTOLIBERO01:38:42+33:59 4.131
56 150127OVER 45 M55427MANONI GIORGIOLIBERO01:39:22+34:39 4.184
57 152129OVER 45 M56340ZUPANCICH GIANFRANCOLIBERO01:41:05+36:22 4.317
58 154131OVER 45 M57401LAMIA FRANCESCOTRAIL DEI DUE LAGHI01:41:18+36:35 4.333
59 156133OVER 45 M58321TRODINI MARCOLAZIO RUNNERS TEAM A.S.D.01:41:55+37:12 4.380
60 158135OVER 45 M59363GINARDI STEFANORUNCARD01:42:05+37:22 4.392
61 165139OVER 45 M60275GRACILI PIETROASD TRAIL DEI MONTI SIMBRUINI01:45:35+40:52 4.644
62 167141OVER 45 M61350RANDOLFI MAURIZIOPODISTICA SOLIDARIETA01:45:36+40:53 4.645
63 172144OVER 45 M62324DE SANTIS EMANUELELBM SPORT TEAM01:46:53+42:10 4.734
64 173145OVER 45 M63309BERTI ROBERTOIL CORRIDORE RUNNING CLUB ASD01:46:58+42:15 4.739
65 175147OVER 45 M64228BARBALISCIA GIANCARLOALMAVIVA RUNNERS CLUB A.S.D.01:47:21+42:38 4.765
66 177148OVER 45 M65362DELLE CURTI ABRAMORUNCARD01:47:46+43:03 4.793
67 180150OVER 45 M66360BATTISTI DANIELERUNCARD01:48:35+43:52 4.847
68 183152OVER 45 M67403SPACCAROTELLA FRANCESCOTRAIL DEI DUE LAGHI01:50:19+45:36 4.960
69 184153OVER 45 M68402MARTINO ROBERTOTRAIL DEI DUE LAGHI01:50:19+45:36 4.960
70 189156OVER 45 M69273LANCIOTTI ALESSANDROASD SEMPRE DI CORSA TEAM01:53:32+48:49 5.159
71 190157OVER 45 M70271IANNILLI GIANCARLOASD SEMPRE DI CORSA TEAM01:53:32+48:49 5.159
72 192158OVER 45 M71202BARONE MAURIZIORUNCARD01:53:54+49:11 5.181
73 194159OVER 45 M72352FRANCIOSI ANDREAPUROSANGUE ATHLETICS CLUB01:57:27+52:44 5.387
74 195160OVER 45 M73216GARABELLO CARLOA.S.D. LIBERATLETICA01:59:24+54:41 5.495
75 196161OVER 45 M74384D'ALESSANDRO RICCARDOINDIVIDUALE01:59:50+55:07 5.519
76 197162OVER 45 M75424BASSETTI BENEDETTOTELEMARK APPENNINI02:02:08+57:25 5.641
77 202164OVER 45 M76432D'AMORE SALVATOREPODISTICA SOLIDARIETA02:04:34+59:51 5.765
78 204165OVER 45 M77257CORRADETTI CLAUDIOASD RUNNER TRAINER02:07:14+01:02:31 5.896
79 210167OVER 45 M78218CIANTI MASSIMILIANOA.S.D. LIBERI PODISTI02:10:29+01:05:46 6.048
80 215168OVER 45 M79259DEL PROPOSTO GIANPAOLOASD RUNNER TRAINER02:19:52+01:15:09 6.447
81 219169OVER 45 M80409DANDI ROBERTOVIRTUS VILLA ADA02:27:25+01:22:42 6.731
82 221171OVER 45 M81349NASCIMBEN SIMONE PIETROPODISTICA SOLIDARIETA02:30:34+01:25:51 6.842
Righe per pagina::     TUTTE    |   30   |   50   |   100